This demonstration page uses our WeatherBlox Daily Observations layout. Learn more.

Left ArrowRight Arrow

Hourly Observations for October 1, 2017

Temp ( °F °C ) Dew Point ( °F °C ) Humidity (%) Winds ( mph kmh ) Pressure ( in mb ) Visibility ( mi km ) Precip ( " mm )
12:54 am 00:54 Cloudy 68 20 48 8.9 49 49 SSE 15 24 29.99 1016 10 16 0.00 0.00
1:54 am 01:54 Cloudy 68 20 48 8.9 49 49 SSE 14 22 29.98 1015 10 16 0.00 0.00
2:54 am 02:54 Cloudy 66 18.9 50 10 56 56 SSE 15 24 29.96 1014 10 16 0.00 0.00
3:54 am 03:54 Cloudy 66 18.9 50 10 56 56 SSE 18 30 29.93 1014 10 16 0.00 0.00
4:54 am 04:54 Cloudy 65 18.3 52 11.1 63 63 SSE 15 24 29.90 1013 10 16 0.00 0.00
5:54 am 05:54 Cloudy 65 18.3 52 11.1 63 63 SSE 15 24 29.89 1012 10 16 0.00 0.00
6:25 am 06:25 Cloudy with Thunderstorms 65 18.3 52 11.1 63 63 S 12 19 29.91 1013 10 16 0.00 0.00
6:52 am 06:52 Cloudy with Nearby Thunderstorms 61 16 55 13 83 83 S 10 17 29.88 1012 8 13 0.06 1.52
6:54 am 06:54 Cloudy with Thunderstorms 61 16.1 55 12.8 81 81 S 12 19 29.89 1012 7 11 0.06 1.52
7:17 am 07:17 Cloudy with Nearby Thunderstorms 61 16.1 55 12.8 81 81 S 14 22 29.88 1012 7 11 0.04 1.02
7:31 am 07:31 Cloudy with Thunderstorms 61 16.1 55 12.8 81 81 S 17 28 29.88 1012 6 10 0.08 2.03
7:54 am 07:54 Cloudy with Thunderstorms 60 15.6 56 13.3 86 86 SE 13 20 29.86 1011 10 16 0.09 2.29
8:01 am 08:01 Cloudy with Nearby Thunderstorms 61 16.1 56 13.3 84 84 SSE 15 24 29.85 1011 9 14 0.00 0.00
8:12 am 08:12 Cloudy 61 16.1 55 12.8 81 81 S 12 19 29.85 1011 10 16 0.00 0.03
8:27 am 08:27 Cloudy with Light Rain 60 15.6 56 13.3 86 86 SSE 15 24 29.85 1011 4 6 0.04 1.02
8:42 am 08:42 Cloudy with Nearby Thunderstorms 61 16.1 56 13.3 84 84 SSE 18 30 29.85 1011 10 16 0.04 1.02
8:54 am 08:54 Cloudy 61 16.1 56 13.3 84 84 SSE 18 30 29.85 1011 9 14 0.04 1.02
9:54 am 09:54 Cloudy 63 17.2 57 13.9 81 81 SSE 15 24 29.84 1011 10 16 0.00 0.03
10:54 am 10:54 Sunny 71 21.7 55 12.8 57 57 S 25 41 29.81 1010 10 16 0.00 0.00
11:54 am 11:54 Sunny 76 24.4 55 12.8 48 48 S 25 41 29.80 1009 10 16 0.00 0.00
12:54 pm 12:54 Mostly Cloudy 79 26.1 56 13.3 45 45 S 22 35 29.78 1008 10 16 0.00 0.00
1:54 pm 13:54 Mostly Cloudy 79 26.1 55 12.8 44 44 S 28 44 29.75 1007 10 16 0.00 0.00
2:54 pm 14:54 Sunny 81 27.2 56 13.3 42 42 S 24 39 29.72 1006 10 16 0.00 0.00
3:54 pm 15:54 Mostly Cloudy 81 27.2 57 13.9 44 44 S 28 44 29.71 1006 10 16 0.00 0.00
4:54 pm 16:54 Cloudy 78 25.6 56 13.3 47 47 S 20 31 29.72 1006 10 16 0.00 0.00
5:54 pm 17:54 Cloudy 77 25 56 13.3 48 48 S 16 26 29.72 1006 10 16 0.00 0.00
6:54 pm 18:54 Cloudy 76 24.4 54 12.2 47 47 SSE 17 28 29.71 1006 10 16 0.00 0.00
7:54 pm 19:54 Cloudy 75 23.9 53 11.7 46 46 SSE 22 35 29.70 1006 10 16 0.00 0.00
8:54 pm 20:54 Clear 74 23.3 52 11.1 46 46 SE 23 37 29.66 1005 10 16 0.00 0.00
9:54 pm 21:54 Partly Cloudy 73 22.8 51 10.6 46 46 SSE 26 43 29.67 1005 10 16 0.00 0.00
10:54 pm 22:54 Cloudy 72 22.2 51 10.6 48 48 S 24 39 29.70 1006 10 16 0.00 0.00
11:54 pm 23:54 Mostly Cloudy 71 21.7 51 10.6 49 49 S 16 26 29.70 1006 10 16 0.00 0.00

Powered by AerisWeather